[[{"header":{"parameterUnit":"m.s-1","parameterCategory":1,"la1":30.2991,"la2":30.254,"lo1":-89.0895,"lo2":-89.0444,"dy":0.0017,"dx":0.0017,"nx":28,"ny":28,"refTime":"2025-07-18T03:00:00:Z","depth":0,"parameterNumber":2,"parameterNumberName":"U-component_of_WINDS"},"data":[0,0,0,0,0,0,0,0,0,0,0,0,0,0,0,0,0,0,0,0,0,0,0,0,0,0,0,0,0,0,0,0,0,0,0,0,0,0,0,0,0,0,0,0,0,0,0,0,0,0,0,0,0,0,0,0,0,0,3.5731,3.5733,0,3.5897,3.5899,3.5901,3.5877,3.5875,3.5872,3.5869,3.6039,3.6046,3.6053,0,0,0,0,0,0,0,0,0,0,0,0,0,3.5392,3.5399,3.5731,3.5733,3.5735,3.5897,3.5899,3.5901,3.5878,3.5875,3.5871,3.5868,3.6037,3.6045,3.6053,0,0,0,0,0,0,0,0,0,0,0,0,0,3.5547,3.5401,3.5731,3.5743,3.5746,3.5896,3.5899,3.5902,3.5879,3.5874,3.587,3.5866,3.6034,3.6044,3.6055,3.6203,0,0,3.6087,3.6092,0,0,0,0,0,0,0,0,3.5538,3.5559,3.5739,3.5743,3.5746,3.5862,3.5842,3.6003,3.588,3.5828,3.5869,3.5864,3.5984,3.5998,3.6038,3.6211,3.6218,3.6088,3.6095,3.6099,3.6102,0,0,0,0,0,0,0,3.5528,3.5552,3.5797,3.5742,3.5746,3.574,3.5757,3.5872,3.5927,3.5832,3.5831,3.5851,3.5985,3.6028,3.6042,3.6221,3.6088,3.6097,3.6104,3.6108,3.652,3.6524,0,0,0,0,0,0,3.5514,3.5543,3.5791,3.5802,3.563,3.5749,3.5769,3.5829,3.5926,3.5937,3.5854,3.5849,3.6012,3.603,3.6048,3.6225,3.6099,3.6109,3.6115,3.6515,3.6521,3.6526,0,0,0,0,0,0,3.5507,3.5536,3.5785,3.5672,3.5703,3.5759,3.5828,3.5835,3.5878,3.5942,3.5952,3.5889,3.6009,3.6033,3.6164,3.6231,3.6114,3.6123,3.651,3.6517,3.6523,3.6582,0,0,0,0,0,0,3.5497,3.5534,3.5591,3.5674,3.571,3.5899,3.5832,3.5841,3.5896,3.5891,3.5977,3.5987,3.6008,3.6148,3.6174,3.6243,3.6132,3.6504,3.6513,3.6521,3.6575,3.659,3.6604,0,0,0,0,0,3.5485,3.5602,3.5594,3.5625,3.5783,3.5903,3.5923,3.5944,3.5902,3.596,3.6,3.5985,3.622,3.6162,3.6191,3.6264,3.65,3.6511,3.652,3.6568,3.6587,3.6604,0,0,0,0,0,0,3.5527,3.5613,3.5606,3.5753,3.5821,3.5899,3.5972,3.5965,3.6046,3.6037,3.606,3.608,3.6211,3.6251,3.6185,3.6411,3.6354,3.637,3.638,3.6399,3.6413,3.64,3.6141,0,0,0,0,0,3.5554,3.5644,3.5715,3.5838,3.5872,3.5916,3.597,3.598,3.605,3.6079,3.613,3.6199,3.6287,3.6346,3.6431,3.6581,3.6597,3.6645,3.666,3.6672,3.6685,3.6763,3.6784,3.6559,3.6559,3.6559,0,0,3.5609,3.5668,3.5724,3.5848,3.5901,3.5993,3.5941,3.6041,3.6109,3.6094,3.622,3.6259,3.6338,3.6477,3.6542,3.6515,3.6751,3.6685,3.6693,3.6701,3.6776,3.6797,3.6816,3.6566,3.6565,3.6564,0,0,3.5757,3.5811,3.5918,3.5972,3.6054,3.6082,3.6107,3.6186,3.6211,3.6338,3.6328,3.6409,3.6563,3.6617,3.6666,3.6831,3.6818,3.6859,3.6934,3.701,3.7028,3.7044,3.71,3.712,3.6872,3.6873,3.6873,0,3.5816,3.5954,3.5975,3.6075,3.6129,3.6119,3.6226,3.6278,3.6383,3.642,3.6388,3.6578,3.6631,3.6781,3.6821,3.6862,3.689,3.6848,3.7024,3.704,3.7055,3.7108,3.713,3.6877,3.6876,3.6876,3.6875,0,3.6021,3.6117,3.6194,3.6294,3.6356,3.646,3.6495,3.6555,3.656,3.6591,3.6718,3.678,3.6876,3.6913,3.692,3.7064,3.7045,3.7019,3.6961,3.708,3.713,3.7151,3.6882,3.6881,3.688,3.6879,0,0,3.62,3.6308,3.6336,3.638,3.6468,3.6542,3.6644,3.6737,3.6788,3.686,3.6945,3.7074,3.7049,3.7103,3.7115,3.7183,3.7305,3.7148,3.715,3.7172,3.7465,3.7482,3.7505,3.7298,3.7302,3.7305,3.7457,0,3.6354,3.6534,3.6554,3.6714,3.6801,3.6792,3.6881,3.6943,3.6975,3.7052,3.7087,3.7177,3.7139,3.7171,3.7237,3.7276,3.7364,3.7266,3.7375,3.7378,3.7353,3.7532,3.7552,3.7692,3.7477,3.7481,3.7483,0,3.6558,3.6634,3.6803,3.6875,3.6912,3.6992,3.7077,3.7153,3.7222,3.724,3.73,3.7302,3.7405,3.7345,3.7486,3.7419,3.7465,3.749,3.7496,3.7505,3.7436,3.7543,3.7738,3.7757,3.7515,3.7513,3.751,0,3.6668,3.6813,3.6932,3.697,3.7058,3.7114,3.7153,3.7219,3.7272,3.7347,3.7382,3.7468,3.7515,3.7581,3.7606,3.756,3.7745,3.7687,3.776,3.776,3.7798,3.7795,3.7999,3.7832,3.7832,3.7832,3.7831,0,3.6836,3.6939,3.6982,3.7055,3.7168,3.719,3.7302,3.7338,3.7396,3.7475,3.7473,3.7547,3.7576,3.7654,3.7674,3.7786,3.7808,3.7824,3.7827,3.7822,3.782,3.7851,3.7841,3.7837,3.7836,3.7835,3.7834,0,3.6977,3.7011,3.7139,3.7211,3.7232,3.7312,3.7373,3.7443,3.7472,3.7571,3.7596,3.7642,3.7734,3.7765,3.7877,3.789,3.8019,3.8016,3.7995,3.7995,3.8065,3.8056,3.8294,3.8325,3.814,3.8142,3.8143,0,3.7081,3.716,3.724,3.7292,3.7333,3.7417,3.7471,3.7495,3.7552,3.7635,3.7694,3.7784,3.7857,3.8003,3.8046,3.8131,3.8128,3.8205,3.814,3.8131,3.8125,3.8119,3.8125,3.8216,3.8218,3.822,3.8221,0,3.7261,3.7273,3.7351,3.7435,3.75,3.7567,3.7632,3.7674,3.7707,3.777,3.7863,3.792,3.8032,3.8121,3.8206,3.8245,3.8238,3.8241,3.8262,3.8256,3.824,3.8246,3.8024,3.8235,3.8234,3.8233,3.8232,3.8232,3.7385,3.7453,3.7519,3.7605,3.7656,3.7716,3.7784,3.7821,3.7899,3.7991,3.8,3.8099,3.8164,3.8278,3.8321,3.8398,3.8376,3.8407,3.8414,3.8421,3.8424,3.8229,3.8414,3.8413,3.8413,3.8413,3.8413,0,3.7562,3.7603,3.7683,3.7772,3.784,3.7827,3.7897,3.7954,3.8041,3.8102,3.8174,3.8278,3.8364,3.8413,3.8498,3.8549,3.8548,3.8571,3.8566,3.8574,3.8441,3.8413,3.857,3.857,3.857,3.857,3.857,3.857,3.7662,3.7775,3.7794,3.7931,3.7972,3.8068,3.8109,3.8163,3.8211,3.8328,3.8398,3.843,3.8485,3.8574,3.865,3.8662,3.8692,3.8717,3.8726,3.86,3.8584,3.8568,3.8542,3.8724,3.8724,3.8853,3.8854,3.8855]},{"header":{"parameterUnit":"m.s-1","parameterCategory":1,"la1":30.2991,"la2":30.254,"lo1":-89.0895,"lo2":-89.0444,"dy":0.0017,"dx":0.0017,"nx":28,"ny":28,"refTime":"2025-07-18T03:00:00:Z","depth":0,"parameterNumber":3,"parameterNumberName":"V-component_of_WINDS"},"data":[0,0,0,0,0,0,0,0,0,0,0,0,0,0,0,0,0,0,0,0,0,0,0,0,0,0,0,0,0,0,0,0,0,0,0,0,0,0,0,0,0,0,0,0,0,0,0,0,0,0,0,0,0,0,0,0,0,0,0.2871,0.2871,0,0.2886,0.2886,0.2886,0.2845,0.2844,0.2843,0.2841,0.286,0.2861,0.2863,0,0,0,0,0,0,0,0,0,0,0,0,0,0.2809,0.281,0.2871,0.2871,0.2871,0.2886,0.2886,0.2886,0.2845,0.2844,0.2842,0.2841,0.2859,0.2861,0.2863,0,0,0,0,0,0,0,0,0,0,0,0,0,0.2831,0.2811,0.2871,0.2853,0.2851,0.2886,0.2886,0.2886,0.2846,0.2844,0.2842,0.284,0.2859,0.2861,0.2864,0.2918,0,0,0.2871,0.2872,0,0,0,0,0,0,0,0,0.283,0.2833,0.2855,0.2854,0.2852,0.2862,0.2871,0.2897,0.2846,0.2848,0.2841,0.2839,0.2862,0.2864,0.2871,0.2918,0.2919,0.2872,0.2873,0.2874,0.2875,0,0,0,0,0,0,0,0.2828,0.2833,0.2877,0.2855,0.2854,0.2844,0.2845,0.2876,0.2866,0.2848,0.2845,0.2847,0.2861,0.2869,0.2872,0.2919,0.2871,0.2874,0.2875,0.2876,0.3011,0.3013,0,0,0,0,0,0,0.2829,0.2832,0.2876,0.2877,0.2836,0.2847,0.2848,0.2861,0.2865,0.2864,0.2848,0.2845,0.2866,0.2869,0.2872,0.2935,0.2874,0.2876,0.2878,0.3009,0.3011,0.3013,0,0,0,0,0,0,0.2828,0.2833,0.2876,0.2854,0.2858,0.285,0.2864,0.2862,0.287,0.2866,0.2864,0.2858,0.2864,0.2868,0.2906,0.2935,0.2878,0.288,0.3006,0.301,0.3012,0.3063,0,0,0,0,0,0,0.2826,0.2833,0.2853,0.2854,0.286,0.2909,0.2866,0.2864,0.2874,0.2869,0.2875,0.2874,0.2863,0.2903,0.2909,0.2938,0.2882,0.3004,0.3008,0.3011,0.3058,0.3067,0.3074,0,0,0,0,0,0.2824,0.2868,0.2855,0.286,0.2884,0.2911,0.2914,0.29,0.2876,0.2897,0.2894,0.2874,0.2931,0.2907,0.2913,0.2944,0.3002,0.3007,0.3011,0.3055,0.3065,0.3074,0,0,0,0,0,0,0.2872,0.2868,0.2853,0.2898,0.2905,0.2904,0.293,0.2912,0.2927,0.2922,0.2905,0.2906,0.2947,0.2949,0.2922,0.2996,0.2962,0.2969,0.2993,0.3003,0.3011,0.3011,0.2884,0,0,0,0,0,0.2887,0.2908,0.2904,0.2944,0.2948,0.2938,0.2949,0.2938,0.2945,0.2948,0.2948,0.2956,0.2976,0.299,0.3008,0.3058,0.3059,0.3082,0.309,0.3096,0.3103,0.3129,0.3139,0.3029,0.3029,0.3029,0,0,0.292,0.292,0.2935,0.2954,0.2958,0.2981,0.2941,0.2967,0.2984,0.2952,0.2987,0.2988,0.2996,0.304,0.3059,0.3043,0.3133,0.3102,0.3108,0.311,0.3135,0.3145,0.3155,0.3032,0.3031,0.3031,0,0,0.2992,0.2994,0.3027,0.3032,0.3038,0.3031,0.3039,0.304,0.3038,0.3073,0.3049,0.3069,0.3104,0.3111,0.3119,0.3191,0.3173,0.3197,0.324,0.3266,0.3274,0.3282,0.3308,0.3318,0.3203,0.3203,0.3203,0,0.3032,0.3065,0.3047,0.3074,0.3083,0.3053,0.3087,0.3093,0.3105,0.3112,0.3093,0.3135,0.3138,0.3183,0.3201,0.3208,0.3217,0.3197,0.3274,0.3282,0.3289,0.3313,0.3323,0.3206,0.3205,0.3205,0.3205,0,0.3114,0.3137,0.3164,0.3175,0.3186,0.3217,0.3204,0.3218,0.3205,0.32,0.3236,0.3238,0.3256,0.3266,0.3254,0.3309,0.3298,0.3277,0.3243,0.3303,0.3326,0.3335,0.321,0.3209,0.3208,0.3207,0,0,0.3218,0.3217,0.3228,0.3232,0.3235,0.3253,0.3282,0.3298,0.3311,0.332,0.3344,0.3373,0.3353,0.3362,0.335,0.3373,0.343,0.3348,0.3348,0.3364,0.3491,0.3508,0.3519,0.3417,0.3419,0.342,0.349,0,0.3289,0.3338,0.3322,0.3372,0.3393,0.3364,0.3389,0.3394,0.339,0.3408,0.3403,0.3424,0.3396,0.3401,0.3422,0.3418,0.3455,0.3413,0.344,0.3442,0.344,0.3531,0.3549,0.3615,0.3499,0.3501,0.3502,0,0.3379,0.3389,0.3441,0.344,0.3448,0.3471,0.3484,0.3501,0.3506,0.3502,0.3511,0.3494,0.3523,0.3488,0.3528,0.3499,0.3509,0.3509,0.3512,0.3515,0.3476,0.3537,0.3636,0.3646,0.3516,0.3515,0.3514,0,0.3449,0.3477,0.3511,0.3516,0.3516,0.3532,0.3533,0.3536,0.3547,0.3558,0.3565,0.358,0.3588,0.3601,0.3589,0.3564,0.363,0.3595,0.3628,0.3628,0.3644,0.3644,0.3747,0.3649,0.3649,0.3649,0.3649,0,0.3531,0.3564,0.3543,0.3564,0.36,0.3581,0.3618,0.3615,0.3618,0.3639,0.3615,0.3635,0.3617,0.3635,0.3626,0.3661,0.3665,0.3662,0.3659,0.3665,0.3665,0.3672,0.3667,0.3652,0.3651,0.3651,0.365,0,0.3617,0.3604,0.364,0.3636,0.3635,0.3662,0.3659,0.3679,0.3672,0.3698,0.3703,0.3693,0.3714,0.3702,0.3724,0.3717,0.3762,0.3753,0.376,0.3758,0.3792,0.3789,0.3904,0.3919,0.3811,0.3812,0.3813,0,0.367,0.3694,0.3692,0.3704,0.3706,0.3725,0.3734,0.3717,0.3728,0.3735,0.3754,0.3772,0.3786,0.382,0.3815,0.3831,0.3822,0.3861,0.3825,0.3829,0.3824,0.3823,0.3825,0.3869,0.3871,0.3872,0.3872,0,0.3765,0.3758,0.3772,0.3785,0.3797,0.3806,0.3813,0.3824,0.3806,0.382,0.384,0.3851,0.3871,0.389,0.3903,0.3905,0.3886,0.3884,0.3892,0.3899,0.3902,0.3901,0.3781,0.3881,0.3881,0.388,0.3879,0.3879,0.3837,0.3857,0.3858,0.3875,0.3878,0.3886,0.3904,0.3898,0.3914,0.3929,0.3917,0.3941,0.3945,0.3961,0.3965,0.3983,0.3968,0.398,0.3984,0.3987,0.3992,0.3898,0.3986,0.3985,0.3985,0.3985,0.3985,0,0.3932,0.3931,0.3946,0.3956,0.397,0.3949,0.3955,0.3968,0.3989,0.3994,0.4007,0.403,0.4047,0.4043,0.4058,0.4074,0.4066,0.4079,0.4078,0.4079,0.4005,0.3996,0.4085,0.4085,0.4085,0.4085,0.4085,0.4085,0.3982,0.4015,0.4007,0.4041,0.404,0.4062,0.4068,0.4074,0.4078,0.4104,0.4117,0.4114,0.4115,0.413,0.4145,0.4144,0.4151,0.4167,0.4163,0.4094,0.4084,0.4075,0.4066,0.4169,0.4169,0.4235,0.4236,0.4236]}]]